FW3958 Weather Reports


time (UTC)temp
F
wind
direction
speed
knots
gust
knots
rain 1hr
in
rain 24hr
in
rain mn
in
humidity
%
barometer
mb
20260831094522 49 13 0.0 0.0 0.00 0.00 0.00 100 1016.4
20260831093007 49 13 0.0 0.0 0.00 0.00 0.00 100 1016.6
20260831091503 50 13 0.0 0.0 0.00 0.00 0.00 100 1016.7
20260831090003 50 13 0.0 0.0 0.00 0.00 0.00 100 1017.0
20260831084600 50 13 0.0 0.0 0.00 0.00 0.00 100 1017.1
20260831083058 50 13 0.0 0.0 0.00 0.00 0.00 100 1017.2
20260831081555 51 13 0.0 0.0 0.00 0.00 0.00 100 1017.3
20260831080103 51 13 0.0 0.0 0.00 0.00 0.00 100 1017.5
20260831074550 52 13 0.0 0.0 0.00 0.00 0.00 100 1017.6
20260831073048 52 13 0.0 0.0 0.00 0.00 0.00 100 1017.8
20260831071545 52 13 0.0 0.0 0.00 0.00 0.00 100 1017.9
20260831070042 53 13 0.0 0.0 0.00 0.00 0.00 100 1018.2
20260831064541 53 13 0.0 0.0 0.00 0.00 0.00 100 1018.2
20260831063038 53 13 0.0 0.0 0.00 0.00 0.00 100 1018.5
20260831061538 54 13 0.0 0.0 0.00 0.00 0.00 100 1018.6
20260831060038 54 13 0.0 0.0 0.00 0.01 0.00 98 1018.8
20260831054535 55 13 0.0 0.0 0.00 0.01 0.00 98 1019.0
20260831053034 56 13 0.0 0.0 0.00 0.01 0.00 97 1019.1
20260831051534 56 13 0.0 0.0 0.00 0.01 0.00 97 1019.3
20260831050032 57 13 0.0 0.0 0.00 0.01 0.00 96 1019.4
20260831044531 58 13 0.0 0.9 0.00 0.01 0.00 95 1019.5
20260831043029 58 14 0.0 3.5 0.00 0.01 0.00 94 1019.7
20260831041537 59 17 0.0 4.3 0.00 0.01 0.00 93 1019.7
20260831040030 59 338 0.0 1.7 0.00 0.01 0.00 91 1019.8
20260831034529 60 354 0.0 1.7 0.00 0.01 0.00 90 1019.8
20260831033029 61 342 0.0 3.5 0.00 0.01 0.00 88 1019.7
20260831031539 62 326 0.9 4.3 0.00 0.01 0.00 87 1019.5
20260831030027 62 331 0.9 3.5 0.00 0.03 0.00 86 1019.6
20260831024526 63 336 0.0 6.1 0.00 0.03 0.00 84 1019.6
20260831023024 64 343 1.7 7.0 0.00 0.03 0.00 83 1019.7
20260831021524 64 353 3.5 7.0 0.00 0.03 0.00 81 1019.7
20260831020023 65 2 2.6 8.7 0.00 0.03 0.00 78 1019.9
20260831014522 66 337 3.5 7.8 0.00 0.03 0.00 79 1020.1
20260831013019 66 313 1.7 7.8 0.00 0.03 0.00 78 1020.3
20260831011517 67 354 2.6 7.8 0.00 0.03 0.00 77 1020.5
20260831010030 67 1 2.6 7.0 0.00 0.03 0.00 76 1020.6
20260831004515 67 347 2.6 7.8 0.00 0.03 0.00 76 1020.6
20260831003013 67 339 3.5 8.7 0.00 0.03 0.00 75 1020.9
20260831001511 67 355 3.5 8.7 0.00 0.03 0.00 76 1020.9
20260831000020 68 286 4.3 8.7 0.00 0.03 0.00 75 1020.9
20260830234507 68 330 4.3 8.7 0.00 0.03 0.00 76 1021.0
20260830233006 68 292 3.5 7.0 0.00 0.03 0.00 76 1021.1
20260830231505 67 334 4.3 8.7 0.00 0.03 0.00 78 1021.1
20260830230009 68 338 3.5 7.8 0.00 0.04 0.00 77 1021.2
20260830224502 68 300 0.0 7.0 0.00 0.04 0.00 76 1021.3
20260830223104 68 309 4.3 7.8 0.00 0.04 0.00 78 1021.6
20260830221610 67 326 4.3 8.7 0.00 0.04 0.00 77 1021.6
20260830220055 67 306 3.5 7.8 0.00 0.04 0.00 78 1021.8
20260830214553 67 338 3.5 7.0 0.00 0.04 0.00 77 1021.9
20260830213049 67 9 4.3 7.8 0.00 0.04 0.00 80 1022.1
20260830211549 66 316 2.6 7.0 0.00 0.04 0.00 80 1022.2
20260830210047 66 288 2.6 7.0 0.00 0.04 0.00 82 1022.3
20260830204545 66 262 2.6 5.2 0.00 0.04 0.00 87 1022.3
20260830203051 67 276 4.3 7.0 0.00 0.04 0.00 79 1022.3
20260830201558 66 315 0.0 7.0 0.00 0.04 0.00 79 1022.4
20260830200056 66 317 0.0 7.0 0.00 0.04 0.00 82 1022.5
20260830194548 66 308 0.9 3.5 0.00 0.04 0.00 83 1022.5
20260830193035 64 289 0.9 3.5 0.00 0.04 0.00 84 1022.7
20260830191535 64 284 1.7 5.2 0.00 0.04 0.00 85 1022.8
20260830190040 65 242 0.0 5.2 0.00 0.04 0.00 83 1022.8
20260830184533 64 308 1.7 7.8 0.00 0.04 0.00 86 1023.0
20260830183033 64 286 2.6 6.1 0.00 0.04 0.00 87 1022.9
20260830181533 65 273 0.0 4.3 0.00 0.04 0.00 80 1022.8
20260830180030 64 271 0.0 1.7 0.00 0.04 0.00 86 1022.8
20260830174527 63 309 0.0 2.6 0.00 0.04 0.00 90 1022.6
20260830173026 62 288 0.0 0.0 0.00 0.04 0.00 90 1022.8
20260830171526 62 268 0.0 2.6 0.00 0.04 0.00 93 1022.7
20260830170032 63 297 0.0 3.5 0.00 0.04 0.00 91 1022.6
20260830164543 63 309 0.0 0.0 0.00 0.04 0.00 88 1022.5
20260830163019 62 238 0.0 0.0 0.00 0.04 0.00 98 1022.6
20260830161515 60 238 0.0 0.0 0.00 0.04 0.00 100 1022.6
20260830160012 58 289 0.0 0.0 0.00 0.06 0.00 100 1022.6
20260830154511 56 290 0.0 0.0 0.00 0.06 0.00 100 1022.8
20260830153010 55 290 0.0 0.0 0.00 0.06 0.00 100 1022.9
20260830151503 54 290 0.0 0.0 0.00 0.06 0.00 100 1022.8
20260830150101 52 290 0.0 0.0 0.00 0.17 0.00 100 1022.9
20260830144558 50 290 0.0 0.0 0.00 0.17 0.00 100 1022.9
20260830143056 50 290 0.0 0.0 0.00 0.17 0.00 100 1022.8
20260830141556 50 290 0.0 0.0 0.00 0.17 0.00 100 1022.6
20260830140101 50 290 0.0 0.0 0.00 0.17 0.00 100 1022.4
20260830134600 50 290 0.0 0.0 0.00 0.17 0.00 100 1022.5
20260830133053 50 290 0.0 0.0 0.00 0.17 0.00 100 1022.5
20260830131551 50 290 0.0 0.0 0.00 0.17 0.00 100 1022.4
20260830130051 50 290 0.0 0.0 0.00 0.17 0.00 100 1022.5
20260830124550 50 290 0.0 0.0 0.00 0.17 0.00 100 1022.5
20260830123050 50 290 0.0 0.0 0.00 0.17 0.00 100 1022.5
20260830121548 49 290 0.0 0.0 0.00 0.17 0.00 100 1022.5
20260830120052 49 290 0.0 0.0 0.00 0.17 0.00 100 1022.8
20260830114547 48 290 0.0 0.0 0.00 0.17 0.00 100 1022.8
20260830113045 48 290 0.0 0.0 0.00 0.17 0.00 100 1022.7
20260830111544 49 290 0.0 0.0 0.00 0.17 0.00 100 1022.5
20260830110043 49 290 0.0 0.0 0.00 0.17 0.00 100 1022.7
20260830104541 50 290 0.0 0.0 0.00 0.17 0.00 100 1022.6
20260830103041 50 290 0.0 0.0 0.00 0.17 0.00 100 1022.6
20260830101540 51 290 0.0 0.0 0.00 0.17 0.00 100 1022.6
20260830100054 51 290 0.0 0.0 0.00 0.17 0.00 100 1022.6